Tracking 21970 objects as of 25-Nov-2020
HD Live streaming from Space Station
objects crossing your sky now

IRIDIUM 33 DEB

Track IRIDIUM 33 DEB now!
10-day predictions


NORAD ID: 33876
Int'l Code: 1997-051AV
Perigee: 599.9 km
Apogee: 613.3 km
Inclination: 86.2 °
Period: 96.7 minutes
Semi major axis: 6977 km
RCS: 0.074 m2 (small)
Launch date: September 14, 1997
Source: United States (US)
Launch site: TYURATAM MISSILE AND SPACE COMPLEX (TTMTR)

Note: This is SATELLITE DEBRIS
aabbcc
Your satellite tracking list
Your tracking list is empty




NASA's NSSDC Master Catalog

Two Line Element Set (TLE):
1 33876U 97051AV  20329.70111180 +.00010647 +00000-0 +11138-2 0  9998
2 33876 086.1873 309.7530 0009571 072.8682 287.3591 14.89507995627461
Source of the keplerian elements: AFSPC